Skip Page Navigation
NASA JPL Caltech
NASA Logo - Jet Propulsion Laboratory + View the NASA Portal
+ Center for Near-Earth Object Studies
JPL Home Earth Solar System Stars & Galaxies Technology
JPL Solar System Dynamics
BODIES ORBITS EPHEMERIDES TOOLS PHYSICAL DATA DISCOVERY FAQ SITE MAP
IMPORTANT: The SSD Announcement email list is now available. Major changes are coming in the near future, including possible hostname and/or URL changes. To be notified of such changes, subscribe to this email list.

Please visit this page for more details.


JPL Small-Body Database Browser
Search: [ help ]  
(2019 SU10)
Classification: Apollo [NEO]          SPK-ID: 3874051
Ephemeris | Orbit Diagram | Orbital Elements | Mission Design | Physical Parameters | Close-Approach Data ]

[ show orbit diagram ]
Orbital Elements at Epoch 2458752.5 (2019-Sep-26.0) TDB
Reference: JPL 1 (heliocentric ecliptic J2000)
 Element Value Uncertainty (1-sigma)   Units 
e .6164908545783865 0.0019069  
a 2.593969897586899 0.012884 au
q .9948111786729419 6.3856e-06 au
i 16.40703962710981 0.030903 deg
node 182.2745942156871 1.8588e-05 deg
peri 194.9862701957338 0.0048988 deg
M 357.1935043541871 0.023405 deg
tp 2458764.396184653049
(2019-Oct-07.89618465)
0.010688 TDB
period 1525.969399413459
4.18
11.369
0.03113
d
yr
n .2359156088833591 0.0017577 deg/d
Q 4.193128616500856 0.020827 au
  Orbit Determination Parameters
   # obs. used (total)      24  
   data-arc span      1 day  
   first obs. used      2019-09-25  
   last obs. used      2019-09-26  
   planetary ephem.      DE431  
   SB-pert. ephem.      SB431-N16  
   condition code      8  
   norm. resid. RMS      .31557  
   source      ORB  
   producer      Otto Matic  
   solution date      2019-Oct-05 06:19:53  

Additional Information
 Earth MOID = .00479298 au 
 Jupiter MOID = 1.28658 au 
 T_jup = 3.073 
[ hide covariance matrix ]
Orbit Covariance (6×6)
  e q tp node peri i
e 3.636450883060156E-6 -1.023132396213932E-8 -2.014440450499389E-5 -1.653999834802185E-8 -8.481798760545686E-6 5.893042232246586E-5
q -1.023132396213932E-8 4.077532506170973E-11 5.105849290497913E-8 -9.14860746994604E-12 1.675528154051179E-8 -1.653812667316688E-7
tp -2.014440450499389E-5 5.105849290497913E-8 .0001142249344616128 1.177241917329018E-7 5.03173179713312E-5 -.0003266472796588328
node -1.653999834802185E-8 -9.14860746994604E-12 1.177241917329018E-7 3.455207053807962E-10 7.158574605538645E-8 -2.699810717083281E-7
peri -8.481798760545686E-6 1.675528154051179E-8 5.03173179713312E-5 7.158574605538645E-8 2.399848985240592E-5 -.000137701596893114
i 5.893042232246586E-5 -1.653812667316688E-7 -.0003266472796588328 -2.699810717083281E-7 -.000137701596893114 .0009550152211202699

Ephemeris | Orbit Diagram | Orbital Elements | Mission Design | Physical Parameters | Close-Approach Data ]

Physical Parameter Table
Parameter Symbol Value Units Sigma Reference Notes
absolute magnitude H 27.166   .21608 1 autocmod 2.8

[ show close-approach data ]
Ephemeris | Orbit Diagram | Orbital Elements | Mission Design | Physical Parameters | Close-Approach Data ]
ABOUT SSD CREDITS/AWARDS PRIVACY/COPYRIGHT GLOSSARY LINKS
FirstGov
(server date/time)  
NASA Home Page
Site Manager:   Ryan S. Park
Webmaster  Alan B. Chamberlin